When you browse on this site, cookies collect data to enhance your experience and personalize the content and advertising you see.
Visit our Privacy Policy to learn more. By continuing to use the site, you agree to this use of cookies and data.
  • In Schweiz
  • Länderverzeichnis
  • Für 7 Tage
  • Wassertemperatur
  • Satellitenkarten
  • Wetterkarte
  • Widgets
  • user-avatar
    Anmelden

    Stündliche Wetter Perth

    Heute, 20 Juni, Donnerstag

    Zeit Temperatur Niederschläge Wind Luftdruck Luftfeuchtigkeit
    00:00 +11°C° 0 mm 3 m/S 764 mmHg 56%
    01:00 +10°C° 0 mm 4 m/S 764 mmHg 56%
    02:00 +10°C° 0 mm 4 m/S 764 mmHg 54%
    03:00 +10°C° 0 mm 4 m/S 764 mmHg 54%
    04:00 +10°C° 0 mm 4 m/S 764 mmHg 54%
    05:00 +10°C° 0 mm 4 m/S 764 mmHg 54%
    06:00 +10°C° 0 mm 4 m/S 764 mmHg 54%
    07:00 +10°C° 0 mm 4 m/S 764 mmHg 54%
    08:00 +10°C° 0 mm 4 m/S 764 mmHg 51%
    09:00 +11°C° 0 mm 4 m/S 764 mmHg 49%
    10:00 +13°C° 0 mm 4 m/S 764 mmHg 48%
    11:00 +14°C° 0 mm 4 m/S 764 mmHg 46%
    12:00 +15°C° 0 mm 4 m/S 763 mmHg 47%
    13:00 +17°C° 0 mm 4 m/S 762 mmHg 47%
    14:00 +18°C° 0 mm 4 m/S 761 mmHg 48%
    15:00 +17°C° 0 mm 4 m/S 761 mmHg 50%
    16:00 +17°C° 0 mm 4 m/S 761 mmHg 51%
    17:00 +17°C° 0 mm 4 m/S 761 mmHg 53%
    18:00 +15°C° 0 mm 4 m/S 761 mmHg 53%
    19:00 +15°C° 0 mm 4 m/S 761 mmHg 52%
    20:00 +15°C° 0 mm 4 m/S 761 mmHg 51%
    21:00 +15°C° 0 mm 4 m/S 761 mmHg 52%
    22:00 +15°C° 0 mm 4 m/S 761 mmHg 53%
    23:00 +15°C° 0 mm 4 m/S 760 mmHg 53%

    Morgen, 21 Juni, Freitag

    Zeit Temperatur Niederschläge Wind Luftdruck Luftfeuchtigkeit
    00:00 +15°C° 0 mm 4 m/S 760 mmHg 55%
    01:00 +14°C° 0 mm 3 m/S 760 mmHg 56%
    02:00 +14°C° 0 mm 3 m/S 759 mmHg 57%
    03:00 +14°C° 0 mm 3 m/S 759 mmHg 58%
    04:00 +13°C° 0 mm 3 m/S 759 mmHg 60%
    05:00 +13°C° 0 mm 3 m/S 759 mmHg 62%
    06:00 +13°C° 0 mm 3 m/S 759 mmHg 63%
    07:00 +13°C° 0 mm 3 m/S 759 mmHg 64%
    08:00 +14°C° 0 mm 2 m/S 759 mmHg 66%
    09:00 +16°C° 0 mm 2 m/S 759 mmHg 60%
    10:00 +18°C° 0 mm 2 m/S 759 mmHg 55%
    11:00 +20°C° 0 mm 2 m/S 759 mmHg 49%
    12:00 +21°C° 0 mm 2 m/S 758 mmHg 48%
    13:00 +23°C° 0 mm 2 m/S 758 mmHg 47%
    14:00 +24°C° 0 mm 2 m/S 757 mmHg 45%
    15:00 +21°C° 0 mm 2 m/S 757 mmHg 51%
    16:00 +20°C° 0 mm 2 m/S 758 mmHg 57%
    17:00 +19°C° 0 mm 2 m/S 758 mmHg 63%
    18:00 +18°C° 0 mm 2 m/S 758 mmHg 66%
    19:00 +17°C° 0 mm 2 m/S 758 mmHg 70%
    20:00 +18°C° 0 mm 1 m/S 759 mmHg 74%
    21:00 +16°C° 0 mm 2 m/S 759 mmHg 76%
    22:00 +16°C° 0 mm 2 m/S 759 mmHg 78%
    23:00 +16°C° 0 mm 2 m/S 759 mmHg 80%

    übermorgen, 22 Juni, Samstag

    Zeit Temperatur Niederschläge Wind Luftdruck Luftfeuchtigkeit
    00:00 +15°C° 0 mm 2 m/S 758 mmHg 82%
    01:00 +15°C° 0 mm 2 m/S 758 mmHg 84%
    02:00 +15°C° 0 mm 2 m/S 758 mmHg 86%
    03:00 +15°C° 0 mm 2 m/S 758 mmHg 87%
    04:00 +15°C° 0 mm 2 m/S 758 mmHg 88%
    05:00 +14°C° 0 mm 3 m/S 758 mmHg 89%
    06:00 +14°C° 0 mm 3 m/S 757 mmHg 88%
    07:00 +14°C° 0 mm 3 m/S 757 mmHg 87%
    08:00 +14°C° 0 mm 4 m/S 757 mmHg 86%
    09:00 +16°C° 0 mm 5 m/S 757 mmHg 78%
    10:00 +19°C° 0 mm 6 m/S 756 mmHg 70%
    11:00 +20°C° 0 mm 6 m/S 756 mmHg 62%
    12:00 +21°C° 0 mm 7 m/S 755 mmHg 60%
    13:00 +22°C° 0 mm 7 m/S 754 mmHg 58%
    14:00 +22°C° 0 mm 7 m/S 754 mmHg 56%
    15:00 +22°C° 0.2 mm 7 m/S 754 mmHg 61%
    16:00 +21°C° 0.2 mm 7 m/S 754 mmHg 65%
    17:00 +20°C° 0.2 mm 7 m/S 753 mmHg 69%
    18:00 +20°C° 2.5 mm 7 m/S 753 mmHg 76%
    19:00 +18°C° 2.5 mm 7 m/S 753 mmHg 82%
    20:00 +17°C° 2.5 mm 8 m/S 753 mmHg 89%
    21:00 +17°C° 5.6 mm 7 m/S 753 mmHg 90%
    22:00 +17°C° 5.6 mm 7 m/S 753 mmHg 90%
    23:00 +17°C° 5.6 mm 7 m/S 754 mmHg 91%

    23 Juni, Sonntag

    Zeit Temperatur Niederschläge Wind Luftdruck Luftfeuchtigkeit
    00:00 +17°C° 1.3 mm 5 m/S 753 mmHg 89%
    01:00 +18°C° 1.3 mm 4 m/S 753 mmHg 87%
    02:00 +18°C° 1.3 mm 3 m/S 753 mmHg 85%
    03:00 +17°C° 0.2 mm 3 m/S 753 mmHg 84%
    04:00 +17°C° 0.2 mm 3 m/S 753 mmHg 83%
    05:00 +17°C° 0.2 mm 3 m/S 753 mmHg 82%
    06:00 +17°C° 0.2 mm 3 m/S 754 mmHg 82%
    07:00 +17°C° 0.2 mm 4 m/S 754 mmHg 81%
    08:00 +17°C° 0.2 mm 4 m/S 755 mmHg 80%
    09:00 +16°C° 0.2 mm 5 m/S 755 mmHg 74%
    10:00 +17°C° 0.2 mm 6 m/S 756 mmHg 68%
    11:00 +18°C° 0.2 mm 7 m/S 756 mmHg 62%
    12:00 +18°C° 0.1 mm 7 m/S 756 mmHg 61%
    13:00 +18°C° 0.1 mm 8 m/S 756 mmHg 60%
    14:00 +18°C° 0.1 mm 8 m/S 756 mmHg 59%
    15:00 +17°C° 0.2 mm 8 m/S 757 mmHg 62%
    16:00 +17°C° 0.2 mm 7 m/S 757 mmHg 65%
    17:00 +16°C° 0.2 mm 7 m/S 758 mmHg 67%
    18:00 +16°C° 0.4 mm 6 m/S 759 mmHg 68%
    19:00 +16°C° 0.4 mm 6 m/S 759 mmHg 68%
    20:00 +15°C° 0.4 mm 5 m/S 760 mmHg 68%
    21:00 +15°C° 0 mm 4 m/S 761 mmHg 69%
    22:00 +14°C° 0 mm 4 m/S 761 mmHg 70%
    23:00 +14°C° 0 mm 3 m/S 762 mmHg 70%

    24 Juni, Montag

    Zeit Temperatur Niederschläge Wind Luftdruck Luftfeuchtigkeit
    00:00 +14°C° 0 mm 3 m/S 762 mmHg 71%
    01:00 +13°C° 0 mm 3 m/S 762 mmHg 73%
    02:00 +14°C° 0 mm 2 m/S 762 mmHg 74%
    03:00 +14°C° 0 mm 2 m/S 763 mmHg 72%
    04:00 +14°C° 0 mm 2 m/S 763 mmHg 71%
    05:00 +14°C° 0 mm 1 m/S 763 mmHg 70%
    06:00 +14°C° 0 mm 1 m/S 764 mmHg 70%
    07:00 +14°C° 0 mm 1 m/S 764 mmHg 69%
    08:00 +15°C° 0 mm 1 m/S 765 mmHg 69%
    09:00 +15°C° 0 mm 1 m/S 765 mmHg 66%
    10:00 +16°C° 0 mm 1 m/S 766 mmHg 62%
    11:00 +18°C° 0 mm 1 m/S 766 mmHg 59%
    12:00 +18°C° 0 mm 2 m/S 766 mmHg 57%
    13:00 +18°C° 0 mm 2 m/S 765 mmHg 55%
    14:00 +19°C° 0 mm 2 m/S 765 mmHg 53%
    15:00 +18°C° 0 mm 2 m/S 765 mmHg 56%
    16:00 +17°C° 0 mm 2 m/S 765 mmHg 59%
    17:00 +18°C° 0 mm 1 m/S 765 mmHg 63%
    18:00 +16°C° 0 mm 1 m/S 766 mmHg 65%
    19:00 +15°C° 0 mm 1 m/S 766 mmHg 68%
    20:00 +15°C° 0 mm 1 m/S 766 mmHg 71%
    21:00 +14°C° 0 mm 1 m/S 766 mmHg 73%
    22:00 +14°C° 0 mm 2 m/S 766 mmHg 74%
    23:00 +13°C° 0 mm 2 m/S 766 mmHg 76%

    25 Juni, Dienstag

    Zeit Temperatur Niederschläge Wind Luftdruck Luftfeuchtigkeit
    00:00 +13°C° 0 mm 2 m/S 766 mmHg 76%
    01:00 +13°C° 0 mm 2 m/S 766 mmHg 76%
    02:00 +13°C° 0 mm 2 m/S 766 mmHg 76%
    03:00 +13°C° 0 mm 2 m/S 766 mmHg 76%
    04:00 +12°C° 0 mm 2 m/S 766 mmHg 77%
    05:00 +12°C° 0 mm 2 m/S 765 mmHg 77%
    06:00 +12°C° 0 mm 2 m/S 766 mmHg 77%
    07:00 +12°C° 0 mm 2 m/S 766 mmHg 78%
    08:00 +12°C° 0 mm 2 m/S 766 mmHg 78%
    09:00 +14°C° 0 mm 2 m/S 766 mmHg 72%
    10:00 +16°C° 0 mm 2 m/S 765 mmHg 66%
    11:00 +18°C° 0 mm 2 m/S 765 mmHg 60%
    12:00 +19°C° 0 mm 3 m/S 764 mmHg 59%
    13:00 +20°C° 0 mm 3 m/S 763 mmHg 57%
    14:00 +21°C° 0 mm 3 m/S 763 mmHg 55%
    15:00 +20°C° 0 mm 3 m/S 763 mmHg 60%
    16:00 +19°C° 0 mm 2 m/S 762 mmHg 65%
    17:00 +19°C° 0 mm 2 m/S 762 mmHg 69%
    18:00 +19°C° 0 mm 1 m/S 762 mmHg 73%
    19:00 +18°C° 0 mm 1 m/S 762 mmHg 76%
    20:00 +16°C° 0 mm 1 m/S 762 mmHg 79%
    21:00 +16°C° 0.1 mm 1 m/S 762 mmHg 80%
    22:00 +16°C° 0.1 mm 1 m/S 762 mmHg 82%
    23:00 +16°C° 0.1 mm 1 m/S 761 mmHg 83%
    Mehr zeigen